Regional Weather Roundup
Issued by NWS

Home | Current Version | Previous Version | Text Only | Print | Product List | Glossary Off
Versions: 1 2 3 4 5 6 7 8 9 10 11 12 13 14 15 16 17 18 19 20 21 22 23 24 25 26 27 28 29 30 31 32 33 34 35 36 37 38 39 40 41 42 43 44 45 46 47 48 49 50

933
ASUS44 KJAN 280410
RWRMS

MISSISSIPPI HOURLY WEATHER ROUNDUP
NATIONAL WEATHER SERVICE JACKSON MS
1100 PM CDT FRI MAR 27 2015

NOTE: "FAIR: INDICATES FEW OR NO CLOUDS BELOW 12,000 FEET WITH NO
SIGNIFICANT WEATHER AND/OR OBSTRUCTIONS TO VISIBILITY.

MSZ001>002-007>008-010>013-018>021-025>028-034>036-280500-
NORTHWEST MISSISSIPPI

CITY           SKY/WX    TMP DP  RH WIND       PRES   REMARKS
CLARKSDALE     FAIR      41  36  81 N7        30.20R
CLEVELAND      FAIR      43  40  89 NE7       30.17S
GREENWOOD      MOCLDY    40  36  86 NE3       30.17S
GREENVILLE     MOCLDY    45  36  70 NE5       30.16S
OLIVE BRANCH   CLEAR     36  30  80 NE6       30.19R WCI  31
OXFORD         FAIR      36  30  80 NE3       30.19S
TUNICA         CLEAR     37  34  87 NE6       30.21R WCI  33
$$

MSZ003>006-009-014>017-022>024-029>033-037>039-280500-
NORTHEAST MISSISSIPPI

CITY           SKY/WX    TMP DP  RH WIND       PRES   REMARKS
COLUMBUS AFB   CLEAR     41  36  82 N7        30.16R
CORINTH        FAIR      37  27  65 NW5       30.17S WCI  34
GOLDN TRIANGLE CLEAR     39  36  87 NW6       30.15S WCI  35
STARKVILLE     FAIR      39  37  93 CALM      30.17R
TUPELO         CLEAR     37  30  75 NE12      30.17R WCI  29
$$

MSZ040-058-280500-
CENTRAL MISSISSIPPI

CITY           SKY/WX    TMP DP  RH WIND       PRES   REMARKS
JACKSON INTL   PTCLDY    48  34  58 N9        30.17R
JACKSON HAWKNS PTCLDY    47  36  65 N6        30.17R
MERIDIAN KEY   CLEAR     44  35  70 N8        30.15R
MERIDIAN NAS   NOT AVBL
RAYMOND        FAIR      46  43  87 CALM      30.17R
VICKSBURG      LGT RAIN  48  38  68 NE7       30.18R
$$

MSZ059>079-280500-
SOUTH MISSISSIPPI

CITY           SKY/WX    TMP DP  RH WIND       PRES   REMARKS
BROOKHAVEN     FAIR      46  39  76 N3        30.17S
HATTIESBURG    CLEAR     52  36  54 N3        30.16R
MCCOMB         CLEAR     51  38  60 N3        30.15R
NATCHEZ        PTCLDY    48  37  66 NE3       30.17R
PINE BELT      CLEAR     46  34  61 N9        30.16R
$$

MSZ080>082-280500-
COASTAL MISSISSIPPI

CITY           SKY/WX    TMP DP  RH WIND       PRES   REMARKS
BILOXI         CLEAR     55  36  49 N10       30.13R
PASCAGOULA     CLEAR     50  37  61 N6        30.13R
GULFPORT       CLEAR     54  35  48 N7        30.13R
$$



USA.gov is the U.S. government's official web portal to all federal, state and local government web resources and services.